#timestamp,LO_Frequency,Hit,StdDev 
1549036815.3,286047010.8,Y
1549036835.1,286047003.0,P
1549036855.9,286047004.9,P
1549036875.7,286047005.3,P
1549036895.6,286047006.8,Y
1549036915.4,286047002.5,P
1549036935.2,286047000.7,N
1549036955.1,286047000.7,N
1549036956.0,286047000.7,N
1549036975.8,286046997.1,N
1549036995.7,286046995.3,N
1549037015.5,286046996.4,N
1549037035.3,286046994.3,N
1549037055.2,286046994.4,N
1549037075.9,286046995.6,N
1549037095.7,286046994.3,N
1549037115.6,286046996.8,N
1549037135.4,286046993.4,N
1549037155.2,286046996.0,N
1549037175.1,286046992.1,N
1549037176.0,286046992.1,N
1549037195.8,286046992.4,N
1549037215.7,286046993.0,N
1549037235.5,286046994.8,N
1549037255.3,286046992.0,N
1549037275.2,286046992.3,N
1549037295.0,286046991.9,N
1549037295.9,286046991.9,N
1549037315.8,286046994.3,N
1549037335.6,286046993.4,N
1549037355.4,286046996.0,N
1549037375.3,286046993.8,N
1549037395.1,286046992.2,N
1549037396.0,286046992.2,N
1549037415.8,286046992.6,N
1549037435.7,286046991.7,N
1549037455.5,286046992.4,N
1549037475.4,286046994.4,N
1549037495.2,286046996.4,N
1549037515.0,286046997.9,N
1549037515.9,286046997.9,N
1549037535.8,286046998.3,N
1549037555.6,286046996.5,N
1549037575.4,286046999.0,N
1549037595.3,286046999.5,N
1549037615.1,286046999.3,N
1549037635.9,286046996.6,N
1549037655.7,286046994.9,N
1549037675.5,286046999.5,N
1549037695.4,286046995.0,N
1549037715.2,286046995.0,N
1549037735.1,286046996.6,N
1549037736.0,286046996.6,N
1549037755.8,286046996.9,N
1549037775.6,286046997.4,N
1549037795.5,286046997.6,N
1549037815.3,286046998.0,N
1549037835.1,286046997.7,N
1549037855.9,286046996.6,N
1549037875.7,286046998.5,N
1549037895.6,286046999.0,N
1549037915.4,286046998.7,N
1549037935.2,286046998.9,N
1549037955.1,286046998.9,N
1549037956.0,286046998.9,N
1549037975.8,286046999.0,N
1549037995.6,286046997.7,N
1549038015.5,286046997.8,N
1549038035.3,286046996.8,N
1549038055.2,286046996.1,Y
1549038075.9,286047001.2,P
1549038095.7,286046998.8,N
1549038115.6,286046999.6,N
1549038135.4,286047000.6,N
1549038155.2,286046999.9,N
1549038175.1,286047002.8,N
1549038176.0,286047002.8,N
1549038195.8,286046998.6,N
1549038215.7,286047000.2,N
1549038235.5,286046996.6,N
1549038255.3,286046998.3,N
1549038275.2,286047001.2,N
1549038295.0,286046999.5,N
1549038295.9,286046999.5,N
1549038315.8,286046998.9,N
1549038335.6,286046998.7,N
1549038355.4,286046999.0,N
1549038375.3,286046999.2,N
1549038395.1,286046999.5,N
1549038415.8,286046999.1,N
1549038435.7,286047001.0,N
1549038455.5,286047000.8,N
1549038475.4,286046999.5,N
1549038495.2,286046996.8,N
1549038515.0,286046996.9,N
1549038515.9,286046996.9,N
1549038535.8,286046996.9,N
1549038555.6,286046999.1,N
1549038575.4,286046999.2,N
1549038595.3,286046999.5,N
1549038615.1,286046997.6,N
1549038635.9,286046996.8,N
1549038655.7,286046997.1,N
1549038675.5,286046998.3,N
1549038695.4,286047002.3,N
1549038715.2,286046999.7,N
1549038735.0,286047002.8,N
1549038735.9,286047002.8,N
1549038755.8,286046999.9,N
1549038775.6,286047000.2,N
1549038795.5,286047002.2,N
1549038815.3,286047003.6,N
1549038835.1,286047003.0,N
1549038855.9,286047002.1,N
1549038875.7,286047002.4,N
1549038895.6,286047000.8,N
1549038915.4,286046998.7,N
1549038935.2,286046998.0,N
1549038955.1,286046995.3,N
1549038956.0,286046995.3,N
1549038975.8,286046999.3,N
1549038995.6,286046998.6,N
1549039015.5,286046998.9,N
1549039035.3,286046998.1,N
1549039055.2,286046999.4,N
1549039075.9,286046996.6,N
1549039095.7,286046998.3,N
1549039115.6,286046998.5,N
1549039135.4,286047000.9,N
1549039155.3,286047003.8,N
1549039175.1,286047003.8,N
1549039176.0,286047003.8,N
1549039195.8,286047004.1,N
1549039215.7,286047003.3,N
1549039235.5,286047001.7,N
1549039255.3,286047000.5,N
1549039275.2,286047000.3,N
1549039295.0,286047001.1,N
1549039295.9,286047001.1,N
1549039315.8,286047000.8,N
1549039335.6,286046999.0,N
1549039355.4,286046997.1,N
1549039375.3,286046996.8,N
1549039395.1,286046999.0,N
1549039415.9,286046999.8,N
1549039435.7,286047002.4,N
1549039455.5,286047001.6,N
1549039475.4,286047005.9,N
1549039495.2,286047004.4,N
1549039515.1,286047002.8,N
1549039516.0,286047002.8,N
1549039535.8,286047000.5,N
1549039555.6,286046998.6,N
1549039575.5,286046995.0,N
1549039595.3,286046993.5,N
1549039615.1,286046994.3,N
1549039635.9,286046992.3,N
1549039655.7,286046992.7,N
1549039675.6,286046992.2,N
1549039695.4,286046992.7,N
1549039715.2,286046989.6,N
1549039735.1,286046989.3,N
1549039736.0,286046989.3,N
1549039755.8,286046987.1,N
1549039775.7,286046985.7,N
1549039795.5,286046982.4,Y
1549039815.3,286046980.6,P
1549039835.2,286046977.8,N
1549039855.0,286046974.8,N
1549039855.9,286046974.8,N
1549039875.8,286046974.8,Y
1549039895.6,286046993.0,P
1549039915.4,286046990.5,N
1549039935.3,286046992.3,N
1549039955.1,286046991.2,N
1549039975.8,286046991.2,N
1549039995.7,286046989.8,N
1549040015.5,286046985.5,Y
1549040035.4,286047000.9,P
1549040055.2,286047001.2,N
1549040075.0,286046999.2,N
1549040075.9,286046999.2,N
1549040095.8,286046998.2,N
1549040115.6,286046996.3,N
1549040135.5,286046993.9,N
1549040155.3,286046992.3,N
1549040175.1,286046992.9,N
1549040195.9,286046992.0,N
1549040215.7,286046994.8,N
1549040235.5,286046992.0,N
1549040255.4,286046992.8,N
1549040275.2,286046989.1,Y
1549040295.1,286046992.2,P
1549040296.0,286046992.2,P
1549040315.8,286046990.4,P
1549040335.6,286046992.2,Y
1549040355.5,286047002.5,P
1549040375.3,286047002.9,N
1549040395.2,286047004.9,N
